Location: Old Broadwell Mill Observatory
(33.8015°N, 85.8137°W)
Time: 12:11:41
(UTC-05:00)

Amateur Radio Satellites - All Passes

Search period start: 01 October 2016 11:41
Search period end: 02 October 2016 11:41
Location: Old Broadwell Mill Observatory, 33.8015°N, 85.8137°W

Satellite Date Start Highest point End Downlink Frequencies (MHz)
Time Altitude Azimuth
DUCHIFAT 1 01 Oct 11:53:31 11:57:40 68° 259° (W) 12:01:49 145.980
AISAT 01 Oct 11:57:33 12:01:18 27° 97° (E) 12:05:00 437.250
PHONESAT 2.4 01 Oct 11:58:19 12:00:41 22° 5° (N) 12:03:04 2401.200-2431.200
Oscar 19 01 Oct 11:58:20 11:58:30 10° 62° (ENE) 11:58:38 437.125/150
QB50P1 01 Oct 12:00:12 12:04:15 47° 260° (W) 12:08:19 145.935-145.965
PCSat 01 Oct 12:02:35 12:06:24 19° 52° (NE) 12:10:11 145.827
YUBILEINY 01 Oct 12:08:14 12:11:16 12° 64° (ENE) 12:14:16 435.215
POPSAT HIP 1 01 Oct 12:14:27 12:18:13 32° 262° (W) 12:22:00 437.405
50 SAT 01 Oct 12:14:38 12:18:04 38° 99° (E) 12:21:28 437.505
DX 1 01 Oct 12:19:15 12:22:57 27° 97° (E) 12:26:38 434.975-435.025
JAS-2 01 Oct 12:27:45 12:34:01 54° 261° (W) 12:41:08 435.910
NANOSAT C BR1 01 Oct 12:28:26 12:31:48 23° 264° (W) 12:35:10 145.865
CUBEBUG 1 01 Oct 12:34:08 12:38:28 81° 282° (WNW) 12:42:45 437.445
VELOX 1 01 Oct 12:40:15 12:44:40 86° 101° (E) 12:49:02 145.980
SO-50 01 Oct 12:43:42 12:44:30 10° 106° (ESE) 12:45:18 436.795
AUBIESAT-1 01 Oct 12:51:12 12:54:16 35° 104° (ESE) 12:57:26 437.475
SPROUT 01 Oct 12:56:06 13:00:21 72° 101° (E) 13:04:36 437.525
ESTCUBE 1 01 Oct 12:58:35 13:02:22 27° 290° (WNW) 13:06:09 437.505/2401.250
BUGSAT 1 01 Oct 13:16:29 13:19:13 17° 265° (W) 13:21:56 437.445
AIST 2 01 Oct 13:16:46 13:19:23 16° 251° (WSW) 13:22:00 435.215
UKube-1 01 Oct 13:18:22 13:22:40 74° 283° (WNW) 13:26:56 .
Gurwin Techsat 1B 01 Oct 13:22:50 13:27:37 36° 70° (ENE) 13:32:25 435.225
Oscar 19 01 Oct 13:31:50 13:37:03 84° 258° (WSW) 13:42:16 437.125/150
M-CUBED/EXP-1 PRIME 01 Oct 13:32:11 13:35:14 37° 290° (WNW) 13:38:21 437.505
PHONESAT 2.4 01 Oct 13:34:14 13:37:07 55° 21° (NNE) 13:40:01 2401.200-2431.200
AISAT 01 Oct 13:34:16 13:37:34 21° 291° (WNW) 13:40:51 437.250
PCSat 01 Oct 13:44:49 13:50:06 53° 248° (WSW) 13:55:19 145.827
50 SAT 01 Oct 13:50:32 13:51:08 10° 293° (WNW) 13:51:44 437.505
Cosmos 2491 01 Oct 13:53:05 14:01:08 42° 88° (E) 14:09:14 435.465 / 435.565
DX 1 01 Oct 13:55:43 13:58:56 21° 291° (WNW) 14:02:09 434.975-435.025
YUBILEINY 01 Oct 14:00:43 14:09:27 78° 83° (E) 14:18:09 435.215
TISAT 1 01 Oct 14:01:55 14:06:05 76° 102° (ESE) 14:10:15 437.305
Cosmos 2504 01 Oct 14:16:59 14:23:57 37° 77° (ENE) 14:31:19 435.465 / 435.565
SO-50 01 Oct 14:19:33 14:24:22 71° 300° (WNW) 14:29:11 436.795
ITAMSAT 1 01 Oct 14:34:07 14:39:02 46° 72° (ENE) 14:43:58 435.822/435.867
ITUPSAT 1 01 Oct 14:41:49 14:46:11 33° 98° (E) 14:50:31 437.325
AO-7 01 Oct 14:47:27 14:55:12 45° 65° (ENE) 15:02:56 29.400- 29.500
SWISSCUBE 01 Oct 14:52:23 14:57:04 51° 100° (E) 15:01:43 437.505
Gurwin Techsat 1B 01 Oct 15:03:26 15:07:35 23° 264° (W) 15:11:45 435.225
BEESAT 01 Oct 15:04:50 15:09:36 63° 101° (ESE) 15:14:19 436.000
AIST 1 01 Oct 15:10:13 15:12:46 15° 75° (ENE) 15:15:18
PHONESAT 2.4 01 Oct 15:10:46 15:13:01 20° 215° (SW) 15:15:15 2401.200-2431.200
Cosmos 2491 01 Oct 15:50:03 15:57:55 36° 285° (WNW) 16:05:53 435.465 / 435.565
KKS-1 01 Oct 15:51:38 15:54:39 18° 95° (E) 15:57:39 437.445
O/OREOS (USA 219) 01 Oct 15:54:42 15:58:29 25° 63° (ENE) 16:02:12 437.305
MOZHAYETS 4 01 Oct 15:55:09 15:59:24 35° 98° (E) 16:03:39
YUBILEINY 01 Oct 15:59:59 16:05:09 18° 280° (W) 16:10:20 435.215
HORYU 2 01 Oct 16:06:32 16:09:04 15° 67° (ENE) 16:11:36 437.375
Cosmos 2504 01 Oct 16:10:22 16:17:10 36° 271° (W) 16:24:23 435.465 / 435.565
BRITE-PL 01 Oct 16:13:50 16:16:44 14° 65° (ENE) 16:19:36 437.365/2234.400
STARS 01 Oct 16:14:24 16:16:48 14° 94° (E) 16:19:11 437.465
ITAMSAT 1 01 Oct 16:15:24 16:18:40 17° 266° (W) 16:21:57 435.822/435.867
ITUPSAT 1 01 Oct 16:20:10 16:23:45 21° 292° (WNW) 16:27:20 437.325
SWISSCUBE 01 Oct 16:31:50 16:34:22 14° 294° (WNW) 16:36:55 437.505
AO-7 01 Oct 16:40:35 16:47:58 35° 261° (W) 16:55:23 29.400- 29.500
BEESAT 01 Oct 16:45:06 16:46:47 12° 296° (WNW) 16:48:28 436.000
AIST 1 01 Oct 16:46:38 16:50:25 32° 269° (W) 16:54:11
CUTE-I 01 Oct 17:05:25 17:08:33 16° 65° (ENE) 17:11:41 437.470
Cubesat XI-IV 01 Oct 17:06:35 17:09:45 16° 65° (ENE) 17:12:57 437.490
GOMX 1 01 Oct 17:18:26 17:22:44 25° 71° (ENE) 17:26:52 467.674
CUBESAT XI-V 01 Oct 17:26:01 17:30:28 43° 99° (E) 17:34:51 437.345
KKS-1 01 Oct 17:27:17 17:31:14 32° 289° (WNW) 17:35:10 437.445
MOZHAYETS 4 01 Oct 17:33:03 17:36:16 19° 292° (WNW) 17:39:29
O/OREOS (USA 219) 01 Oct 17:33:59 17:37:46 25° 258° (WSW) 17:41:29 437.305
HORYU 2 01 Oct 17:41:07 17:45:15 40° 261° (W) 17:49:24 437.375
BRITE-PL 01 Oct 17:48:55 17:54:35 70° 259° (W) 18:00:08 437.365/2234.400
STARS 01 Oct 17:49:12 17:53:15 39° 288° (WNW) 17:57:19 437.465
JUGNU 01 Oct 17:51:32 17:54:34 14° 167° (SSE) 17:57:36 437.505
CUSAT 1 01 Oct 17:53:03 17:58:40 34° 87° (E) 18:05:17 437.405
LilacSat-2 01 Oct 17:55:12 17:58:46 42° 74° (ENE) 18:02:20 437.200
NOAA 15 01 Oct 18:12:29 18:17:48 88° 254° (WSW) 18:23:09 137.62
NOAA 18 01 Oct 18:19:19 18:24:45 70° 74° (ENE) 18:30:11 137.9125
DANDE 01 Oct 18:24:02 18:27:49 19° 81° (E) 18:32:15 436.750
AO-85 01 Oct 18:24:25 18:25:29 11° 107° (ESE) 18:26:33 145.980
GONETS M04 01 Oct 18:24:48 18:31:47 26° 72° (ENE) 18:38:39
ISS 01 Oct 18:39:18 18:42:29 58° 318° (NW) 18:45:42 145.825
CUTE-I 01 Oct 18:42:55 18:48:05 55° 259° (W) 18:53:18 437.470
CUTE 1.7 + AOD 2 01 Oct 18:43:51 18:45:05 11° 66° (ENE) 18:46:20 437.475
Cubesat XI-IV 01 Oct 18:44:09 18:49:20 54° 259° (W) 18:54:32 437.490
CANX-2 01 Oct 18:44:58 18:47:08 14° 68° (ENE) 18:49:18 2200.000
RS-15 01 Oct 18:54:18 19:05:32 66° 112° (ESE) 19:17:26 29.354- 29.394
DOVE 4 01 Oct 18:55:24 19:00:25 76° 258° (WSW) 19:05:08 437.250
GOMX 1 01 Oct 18:55:47 19:00:35 33° 262° (W) 19:05:14 467.674
HO-68 01 Oct 19:02:16 19:08:43 38° 67° (ENE) 19:15:10 435.675
CUBESAT XI-V 01 Oct 19:04:40 19:07:25 16° 293° (WNW) 19:10:11 437.345
Cosmos 2499 01 Oct 19:07:31 19:14:50 42° 78° (ENE) 19:22:37 435.465 / 435.565
COMPASS 1 01 Oct 19:34:07 19:37:12 20° 70° (ENE) 19:40:18 437.405
CUSAT 1 01 Oct 19:34:29 19:40:27 39° 287° (WNW) 19:47:32 437.405
CINEMA 3 01 Oct 19:36:45 19:41:11 75° 77° (ENE) 19:45:28 145.822/145.860
JUGNU 01 Oct 19:38:38 19:42:55 20° 176° (S) 19:47:10 437.505
AO-85 01 Oct 20:00:08 20:05:25 79° 298° (WNW) 20:10:24 145.980
FUNcube-1 01 Oct 20:02:33 20:03:47 11° 67° (ENE) 20:05:01 145.935
NOAA 18 01 Oct 20:03:53 20:05:49 12° 268° (W) 20:07:45 137.9125
DANDE 01 Oct 20:04:34 20:09:41 50° 284° (WNW) 20:16:25 436.750
SEEDS 01 Oct 20:09:33 20:13:45 86° 77° (ENE) 20:18:00 437.485
STRAND 1 01 Oct 20:11:04 20:16:14 82° 285° (WNW) 20:21:23 437.568
CUBEBUG 2 01 Oct 20:15:36 20:19:38 48° 75° (ENE) 20:23:38 437.445
CUTE 1.7 + AOD 2 01 Oct 20:16:18 20:20:25 51° 260° (W) 20:24:34 437.475
CANX-2 01 Oct 20:18:37 20:22:35 40° 261° (W) 20:26:37 2200.000
AAUSAT CUBESAT 2 01 Oct 20:19:40 20:23:44 56° 76° (ENE) 20:27:50 437.432
GONETS M04 01 Oct 20:20:28 20:29:02 59° 269° (W) 20:37:31
UWE-3 01 Oct 20:24:42 20:28:33 38° 74° (ENE) 20:32:24 435.000/436.395/437.385
Oscar 11 01 Oct 20:33:56 20:37:41 30° 72° (ENE) 20:41:28 145.826/435.025
SRMSAT 01 Oct 20:43:59 20:47:32 16° 169° (S) 20:51:04 437.500
ZACube-1 01 Oct 20:44:09 20:48:01 40° 74° (ENE) 20:51:54 437.345
HO-68 01 Oct 20:49:55 20:56:20 35° 262° (W) 21:02:47 435.675
Cosmos 2499 01 Oct 21:00:55 21:07:41 33° 272° (W) 21:14:54 435.465 / 435.565
DELFI C3 01 Oct 21:03:22 21:06:34 23° 71° (ENE) 21:09:47 145.870
RS-15 01 Oct 21:08:20 21:18:46 36° 314° (NW) 21:29:44 29.354- 29.394
COMPASS 1 01 Oct 21:09:03 21:12:33 26° 264° (W) 21:16:05 437.405
JUGNU 01 Oct 21:27:12 21:31:17 19° 187° (S) 21:35:19 437.505
FUNcube-1 01 Oct 21:35:36 21:39:34 46° 261° (W) 21:43:33 145.935
PRISM 01 Oct 21:43:17 21:47:25 84° 283° (WNW) 21:51:29 437.425
AO-85 01 Oct 21:45:50 21:46:31 10° 314° (NW) 21:47:11 145.980
UNISAT 6 01 Oct 21:54:44 21:57:17 15° 94° (E) 21:59:50 437.425
HUMSAT D 01 Oct 22:01:34 22:05:35 59° 75° (ENE) 22:09:38 437.325/437.525
UWE-3 01 Oct 22:03:20 22:05:09 13° 267° (W) 22:06:58 435.000/436.395/437.385
Oscar 11 01 Oct 22:10:50 22:13:49 18° 265° (W) 22:16:48 145.826/435.025
ESTCUBE 1 01 Oct 22:19:02 22:21:21 14° 66° (ENE) 22:23:40 437.505/2401.250
ZACube-1 01 Oct 22:22:48 22:24:28 12° 267° (W) 22:26:07 437.345
ANTELSAT 01 Oct 22:28:32 22:32:41 36° 98° (E) 22:36:55 437.575/2403.000
SRMSAT 01 Oct 22:31:44 22:36:01 21° 179° (S) 22:40:17 437.500
DELFI C3 01 Oct 22:38:19 22:41:18 20° 265° (W) 22:44:19 145.870
TIGRISAT 01 Oct 22:47:34 22:52:00 58° 101° (E) 22:56:30 435.000
AISAT 01 Oct 22:52:01 22:54:45 16° 68° (ENE) 22:57:28 437.250
SO-50 01 Oct 22:55:06 22:59:16 34° 55° (NE) 23:03:18 436.795
BEESAT 3 01 Oct 23:02:46 23:06:08 29° 112° (ESE) 23:09:33 437.485
QB50P2 01 Oct 23:09:58 23:11:37 12° 93° (E) 23:13:13 145.880/145.840
DX 1 01 Oct 23:12:00 23:14:35 16° 67° (ENE) 23:17:11 434.975-435.025
POLYITAN 1 01 Oct 23:12:08 23:13:46 12° 93° (E) 23:15:24 437.675
JUGNU 01 Oct 23:17:50 23:19:34 11° 196° (SSW) 23:21:18 437.505
CUBEBUG 1 01 Oct 23:25:52 23:30:07 49° 74° (ENE) 23:34:22 437.445
UNISAT 6 01 Oct 23:29:53 23:34:05 41° 287° (WNW) 23:38:22 437.425
RS-15 01 Oct 23:31:29 23:36:41 13° 347° (NNW) 23:41:59 29.354- 29.394
VELOX 1 01 Oct 23:33:27 23:37:41 45° 73° (ENE) 23:41:56 145.980
AUBIESAT-1 01 Oct 23:33:35 23:36:55 26° 69° (ENE) 23:40:04 437.475
DUCHIFAT 1 01 Oct 23:41:54 23:45:20 24° 97° (E) 23:48:44 145.980
JAS-2 01 Oct 23:42:01 23:48:46 32° 94° (E) 23:55:02 435.910
SPROUT 01 Oct 23:45:51 23:49:38 32° 72° (ENE) 23:53:25 437.525
QB50P1 01 Oct 23:48:44 23:52:35 34° 98° (E) 23:56:26 145.935-145.965
ESTCUBE 1 01 Oct 23:53:22 23:57:43 47° 261° (W) 00:02:06 437.505/2401.250
POPSAT HIP 1 02 Oct 00:02:30 00:06:36 50° 100° (E) 00:10:43 437.405
ANTELSAT 02 Oct 00:06:10 00:09:05 17° 291° (WNW) 00:12:03 437.575/2403.000
BEESAT 2 02 Oct 00:07:01 00:10:56 85° 117° (ESE) 00:14:54 435.950
UKube-1 02 Oct 00:08:41 00:12:54 54° 74° (ENE) 00:17:07 .
Cosmos 2491 02 Oct 00:10:01 00:15:04 16° 67° (ENE) 00:20:04 435.465 / 435.565
M-CUBED/EXP-1 PRIME 02 Oct 00:14:09 00:18:16 69° 254° (WSW) 00:22:04 437.505
NANOSAT C BR1 02 Oct 00:15:32 00:19:44 71° 101° (ESE) 00:23:56 145.865
50 SAT 02 Oct 00:20:20 00:23:46 40° 261° (W) 00:27:14 437.505
SRMSAT 02 Oct 00:20:48 00:24:31 17° 189° (S) 00:28:14 437.500
AISAT 02 Oct 00:26:44 00:30:53 38° 261° (W) 00:35:01 437.250
TIGRISAT 02 Oct 00:26:52 00:28:10 11° 294° (WNW) 00:29:28 435.000
SO-50 02 Oct 00:36:12 00:39:26 20° 250° (WSW) 00:42:38 436.795
BEESAT 3 02 Oct 00:41:00 00:43:47 19° 307° (NW) 00:46:36 437.485
QB50P2 02 Oct 00:43:33 00:47:34 43° 286° (WNW) 00:51:35 145.880/145.840
POLYITAN 1 02 Oct 00:45:42 00:49:43 44° 286° (WNW) 00:53:45 437.675
DX 1 02 Oct 00:46:20 00:50:25 38° 261° (W) 00:54:31 434.975-435.025
TISAT 1 02 Oct 00:49:48 00:53:31 32° 72° (ENE) 00:57:13 437.305
BUGSAT 1 02 Oct 01:00:21 01:04:23 87° 103° (ESE) 01:08:27 437.445
YUBILEINY 02 Oct 01:04:24 01:09:19 17° 80° (E) 01:14:14 435.215
CUBEBUG 1 02 Oct 01:05:05 01:06:37 12° 267° (W) 01:08:07 437.445
AUBIESAT-1 02 Oct 01:08:32 01:11:18 18° 258° (WSW) 01:13:56 437.475
ISS 02 Oct 01:10:28 01:13:14 24° 36° (NE) 01:15:59 145.825
VELOX 1 02 Oct 01:12:19 01:14:19 13° 267° (W) 01:16:20 145.980
DUCHIFAT 1 02 Oct 01:17:38 01:20:51 22° 290° (WNW) 01:24:05 145.980
SPROUT 02 Oct 01:22:51 01:25:35 17° 265° (W) 01:28:21 437.525
QB50P1 02 Oct 01:25:28 01:28:03 16° 292° (WNW) 01:30:38 145.935-145.965
JAS-2 02 Oct 01:26:30 01:33:48 45° 291° (WNW) 01:40:36 435.910
AIST 2 02 Oct 01:32:01 01:34:53 19° 110° (ESE) 01:37:47 435.215
POPSAT HIP 1 02 Oct 01:40:37 01:41:54 11° 294° (WNW) 01:43:11 437.405
Gurwin Techsat 1B 02 Oct 01:43:39 01:47:25 19° 95° (E) 01:51:08 435.225
ITUPSAT 1 02 Oct 01:45:05 01:48:58 26° 69° (ENE) 01:52:52 437.325
Oscar 19 02 Oct 01:47:33 01:52:31 47° 100° (E) 01:57:25 437.125/150
UKube-1 02 Oct 01:49:01 01:49:11 10° 268° (W) 01:49:21 .
RS-15 02 Oct 01:49:22 01:56:59 18° 26° (NNE) 02:04:33 29.354- 29.394
SWISSCUBE 02 Oct 01:55:02 01:59:24 37° 71° (ENE) 02:03:47 437.505
Cosmos 2491 02 Oct 02:04:06 02:12:59 87° 266° (W) 02:21:46 435.465 / 435.565
BEESAT 02 Oct 02:07:18 02:11:50 45° 73° (ENE) 02:16:22 436.000
TISAT 1 02 Oct 02:26:34 02:29:11 16° 265° (W) 02:31:48 437.305
PCSat 02 Oct 02:39:34 02:44:25 34° 109° (ESE) 02:49:17 145.827
ISS 02 Oct 02:46:54 02:49:39 25° 230° (SW) 02:52:25 145.825
KKS-1 02 Oct 02:47:59 02:49:07 11° 65° (ENE) 02:50:13 437.445
ITAMSAT 1 02 Oct 02:51:28 02:55:33 23° 96° (E) 02:59:36 435.822/435.867
Cosmos 2504 02 Oct 02:51:46 02:58:08 32° 88° (E) 03:04:19 435.465 / 435.565
MOZHAYETS 4 02 Oct 02:53:44 02:57:12 22° 69° (ENE) 03:00:41
AO-7 02 Oct 02:55:18 03:00:11 17° 93° (E) 03:05:02 29.400- 29.500
YUBILEINY 02 Oct 02:56:09 03:04:58 82° 277° (W) 03:13:45 435.215
AIST 2 02 Oct 03:09:30 03:13:07 30° 305° (NW) 03:16:47 435.215
Gurwin Techsat 1B 02 Oct 03:22:28 03:27:28 43° 288° (WNW) 03:32:27 435.225
ITUPSAT 1 02 Oct 03:22:39 03:26:39 27° 263° (W) 03:30:42 437.325
Oscar 19 02 Oct 03:28:07 03:31:24 17° 294° (WNW) 03:34:40 437.125/150
SWISSCUBE 02 Oct 03:34:03 03:37:16 18° 265° (W) 03:40:30 437.505
AIST 1 02 Oct 03:36:58 03:38:16 11° 86° (E) 03:39:34
BEESAT 02 Oct 03:47:09 03:49:47 15° 266° (W) 03:52:25 436.000
RS-15 02 Oct 04:01:06 04:13:13 55° 54° (NE) 04:24:58 29.354- 29.394
Cosmos 2491 02 Oct 04:04:37 04:08:24 14° 282° (WNW) 04:12:13 435.465 / 435.565
KKS-1 02 Oct 04:20:45 04:25:07 58° 259° (WSW) 04:29:31 437.445
PCSat 02 Oct 04:23:14 04:27:47 27° 304° (NW) 04:32:24 145.827
CUBESAT XI-V 02 Oct 04:25:36 04:29:33 27° 71° (ENE) 04:33:31 437.345
MOZHAYETS 4 02 Oct 04:30:12 04:34:09 29° 263° (W) 04:38:09
ITAMSAT 1 02 Oct 04:30:17 04:35:01 35° 290° (WNW) 04:39:44 435.822/435.867
CUSAT 1 02 Oct 04:33:18 04:38:12 20° 65° (ENE) 04:42:29 437.405
AO-85 02 Oct 04:36:39 04:40:06 26° 54° (NE) 04:43:23 145.980
STARS 02 Oct 04:41:19 04:45:41 75° 257° (WSW) 04:50:04 437.465
Cosmos 2504 02 Oct 04:44:39 04:51:18 36° 283° (WNW) 04:57:48 435.465 / 435.565
AO-7 02 Oct 04:45:20 04:53:39 83° 289° (WNW) 05:01:56 29.400- 29.500
YUBILEINY 02 Oct 04:59:17 05:03:02 13° 295° (WNW) 05:06:49 435.215
DANDE 02 Oct 05:06:07 05:11:36 19° 65° (ENE) 05:16:38 436.750
AIST 1 02 Oct 05:11:09 05:15:22 46° 279° (W) 05:19:34
HORYU 2 02 Oct 05:35:28 05:39:49 49° 100° (E) 05:44:08 437.375
BRITE-PL 02 Oct 05:58:50 06:03:16 51° 99° (E) 06:07:25 437.365/2234.400
O/OREOS (USA 219) 02 Oct 06:02:15 06:06:42 58° 107° (ESE) 06:11:13 437.305
CUBESAT XI-V 02 Oct 06:03:02 06:06:49 24° 264° (W) 06:10:39 437.345
CUSAT 1 02 Oct 06:13:56 06:20:58 60° 267° (W) 06:26:29 437.405
RS-15 02 Oct 06:14:15 06:25:17 41° 254° (WSW) 06:36:01 29.354- 29.394
AO-85 02 Oct 06:17:25 06:20:16 19° 250° (WSW) 06:23:02 145.980
NOAA 15 02 Oct 06:31:47 06:36:54 48° 100° (E) 06:41:58 137.62
AO-7 02 Oct 06:40:44 06:45:09 16° 306° (NW) 06:49:35 29.400- 29.500
NOAA 18 02 Oct 06:45:30 06:50:39 41° 99° (E) 06:55:47 137.9125
DANDE 02 Oct 06:47:03 06:55:24 81° 264° (W) 07:02:29 436.750
DOVE 4 02 Oct 06:58:37 07:02:25 34° 98° (E) 07:06:13 437.250
GOMX 1 02 Oct 07:01:33 07:05:48 75° 283° (WNW) 07:09:55 467.674
CUTE-I 02 Oct 07:03:42 07:09:04 83° 101° (ESE) 07:14:27 437.470
Cubesat XI-IV 02 Oct 07:05:07 07:10:31 84° 105° (ESE) 07:15:53 437.490
LilacSat-2 02 Oct 07:06:07 07:09:56 68° 284° (WNW) 07:13:47 437.200
HORYU 2 02 Oct 07:13:53 07:15:53 13° 294° (WNW) 07:17:54 437.375
GONETS M04 02 Oct 07:20:42 07:28:17 34° 86° (E) 07:35:53
STRAND 1 02 Oct 07:22:55 07:28:00 86° 257° (WSW) 07:33:08 437.568
PHONESAT 2.4 02 Oct 07:33:43 07:36:14 27° 147° (SSE) 07:38:45 2401.200-2431.200
CINEMA 3 02 Oct 07:35:33 07:38:53 22° 96° (E) 07:42:18 145.822/145.860
BRITE-PL 02 Oct 07:39:35 07:41:10 12° 296° (WNW) 07:42:43 437.365/2234.400
Cosmos 2499 02 Oct 07:40:44 07:46:59 34° 88° (E) 07:53:11 435.465 / 435.565
O/OREOS (USA 219) 02 Oct 07:44:44 07:46:29 12° 302° (WNW) 07:48:14 437.305
SEEDS 02 Oct 07:58:12 08:01:15 19° 95° (E) 08:04:17 437.485
CUTE 1.7 + AOD 2 02 Oct 08:05:07 08:09:04 35° 98° (E) 08:12:58 437.475
CANX-2 02 Oct 08:07:15 08:11:22 43° 99° (E) 08:15:27 2200.000
AAUSAT CUBESAT 2 02 Oct 08:07:53 08:09:26 12° 92° (E) 08:10:59 437.432
CUBEBUG 2 02 Oct 08:11:11 08:13:37 14° 94° (E) 08:16:04 437.445
NOAA 15 02 Oct 08:12:47 08:16:14 18° 295° (WNW) 08:19:42 137.62
UWE-3 02 Oct 08:19:55 08:21:18 11° 93° (E) 08:22:42 435.000/436.395/437.385
HO-68 02 Oct 08:20:56 08:27:58 57° 102° (ESE) 08:34:57 435.675
NOAA 18 02 Oct 08:26:51 08:31:00 22° 294° (WNW) 08:35:08 137.9125
PRISM 02 Oct 08:28:38 08:32:29 38° 73° (ENE) 08:36:23 437.425
BEESAT 2 02 Oct 08:29:34 08:32:03 16° 51° (NE) 08:34:32 435.950
DANDE 02 Oct 08:33:26 08:36:36 13° 282° (WNW) 08:39:39 436.750
DOVE 4 02 Oct 08:37:33 08:39:48 14° 292° (WNW) 08:42:04 437.250
ZACube-1 02 Oct 08:38:13 08:39:33 11° 92° (E) 08:40:54 437.345
CUTE-I 02 Oct 08:47:10 08:48:21 11° 298° (WNW) 08:49:32 437.470
Cubesat XI-IV 02 Oct 08:48:50 08:49:48 10° 298° (WNW) 08:50:46 437.490
COMPASS 1 02 Oct 08:54:52 08:59:03 64° 100° (E) 09:03:12 437.405
BEESAT 3 02 Oct 09:00:12 09:04:10 72° 61° (ENE) 09:08:07 437.485
PHONESAT 2.4 02 Oct 09:09:25 09:12:12 42° 341° (NNW) 09:15:01 2401.200-2431.200
CINEMA 3 02 Oct 09:12:30 09:15:56 24° 288° (WNW) 09:19:28 145.822/145.860
GONETS M04 02 Oct 09:16:24 09:24:45 46° 282° (WNW) 09:33:10
ANTELSAT 02 Oct 09:24:33 09:27:34 19° 69° (ENE) 09:30:37 437.575/2403.000
FUNcube-1 02 Oct 09:26:55 09:31:05 41° 99° (E) 09:35:19 145.935
SEEDS 02 Oct 09:33:16 09:36:54 28° 288° (WNW) 09:40:32 437.485
Cosmos 2499 02 Oct 09:33:42 09:39:58 33° 284° (WNW) 09:46:13 435.465 / 435.565
AAUSAT CUBESAT 2 02 Oct 09:41:07 09:45:05 43° 286° (WNW) 09:49:01 437.432
CUTE 1.7 + AOD 2 02 Oct 09:41:54 09:44:34 16° 292° (WNW) 09:47:13 437.475
TIGRISAT 02 Oct 09:42:54 09:46:35 29° 72° (ENE) 09:50:17 435.000
CANX-2 02 Oct 09:44:45 09:46:46 13° 293° (WNW) 09:48:49 2200.000
CUBEBUG 2 02 Oct 09:46:13 09:50:19 40° 286° (WNW) 09:54:31 437.445
HUMSAT D 02 Oct 09:50:18 09:52:25 13° 93° (E) 09:54:32 437.325/437.525
UWE-3 02 Oct 09:53:40 09:57:56 51° 285° (WNW) 10:02:20 435.000/436.395/437.385
Oscar 11 02 Oct 10:00:15 10:04:37 75° 283° (WNW) 10:08:57 145.826/435.025
PRISM 02 Oct 10:05:53 10:07:54 13° 266° (W) 10:09:56 437.425
BEESAT 2 02 Oct 10:06:16 10:10:00 38° 247° (WSW) 10:13:43 435.950
HO-68 02 Oct 10:09:43 10:15:09 24° 297° (WNW) 10:20:35 435.675
ZACube-1 02 Oct 10:11:45 10:16:02 52° 285° (WNW) 10:20:23 437.345
DELFI C3 02 Oct 10:18:24 10:22:23 66° 101° (E) 10:26:20 145.870
UNISAT 6 02 Oct 10:24:32 10:28:47 76° 258° (WSW) 10:33:04 437.425
DUCHIFAT 1 02 Oct 10:32:09 10:33:23 11° 66° (ENE) 10:34:38 145.980
QB50P1 02 Oct 10:38:28 10:41:03 16° 68° (ENE) 10:43:37 145.935-145.965
PHONESAT 2.4 02 Oct 10:46:22 10:48:41 21° 358° (N) 10:51:01 2401.200-2431.200
POPSAT HIP 1 02 Oct 10:51:42 10:54:58 22° 70° (ENE) 10:58:15 437.405
ANTELSAT 02 Oct 11:00:26 11:04:05 28° 263° (W) 11:07:44 437.575/2403.000
NANOSAT C BR1 02 Oct 11:04:00 11:07:39 30° 72° (ENE) 11:11:19 145.865
FUNcube-1 02 Oct 11:04:28 11:06:57 15° 292° (WNW) 11:09:29 145.935
TIGRISAT 02 Oct 11:20:25 11:23:18 18° 265° (W) 11:26:10 435.000
CUBEBUG 1 02 Oct 11:20:26 11:22:04 12° 93° (E) 11:23:42 437.445
HUMSAT D 02 Oct 11:24:08 11:28:09 40° 286° (WNW) 11:32:10 437.325/437.525
VELOX 1 02 Oct 11:29:43 11:31:07 11° 93° (E) 11:32:31 145.980
QB50P2 02 Oct 11:31:44 11:35:55 79° 77° (ENE) 11:40:08 145.880/145.840
PCSat 02 Oct 11:32:34 11:35:19 14° 49° (NE) 11:38:04 145.827
